Weather History for Buffalo, WY

Change the Weather History Date:

Monday, November 5, 2012

  Actual Average Record
Temperature  
Mean Temperature 52 °F 39 °F  
Max Temperature 64 °F 50 °F 74 °F (1969)
Min Temperature 39 °F 28 °F -1 °F (2003)
Degree Days  
Heating Degree Days 14 26  
Month to date heating degree days 126  
Since 1 July heating degree days 1032  
Cooling Degree Days 0 0  
Month to date cooling degree days 0  
Year to date cooling degree days 492  
Growing Degree Days 2 (Base 50)    
Moisture  
Dew Point 33 °F    
Average Humidity 51    
Maximum Humidity 73    
Minimum Humidity 31    
Precipitation  
Precipitation 0.00 in 0.01 in 0.01 in (2008)
Month to date precipitation 0.07  
Year to date precipitation 12.58  
Sea Level Pressure  
Sea Level Pressure 30.09 in    
Wind  
Wind Speed 5 mph (SSW)    
Max Wind Speed 15 mph    
Max Gust Speed 24 mph    
Visibility 10 miles    
Events      
T = Trace of Precipitation, MM = Missing Value Source: NWS Daily Summary

Daily Weather History Graph

Daily Weather History Graph

Search for Another Location

Airport:

Trip Planner

Search our weather history database for the weather conditions in past years. The results will help you decide how hot, cold, wet, or windy it might be!

Date:

Astronomy

Nov. 05, 2012 Rise Set
Actual Time 6:50 AM MST 4:50 PM MST
Civil Twilight 6:19 AM MST 5:20 PM MST
Nautical Twilight 5:44 AM MST 5:55 PM MST
Astronomical Twilight 5:11 AM MST 6:29 PM MST
Moon 10:31 PM MST (11/5) 12:11 PM MST (11/5)
Length of Visible Light 11h 01m
Length of Day
10h 00m
Waning Gibbous, 62% of the Moon is Illuminated
Nov 5
Waning Gibbous
Nov 6
Last Quarter
Nov 13
New
Nov 20
First Quarter
Nov 28
Full

Hourly Weather History & Observations

Time (MST) Temp. Windchill Dew Point Humidity Pressure Visibility Wind Dir Wind Speed Gust Speed Precip Events Conditions
12:53 AM 43.0 °F 38.2 °F 34.0 °F 71% 30.24 in 10.0 mi South 8.1 mph - N/A   Unknown
1:53 AM 42.1 °F 37.7 °F 33.1 °F 70% 30.22 in 10.0 mi SW 6.9 mph - N/A   Unknown
2:53 AM 39.9 °F 37.8 °F 32.0 °F 73% 30.20 in 10.0 mi SSW 3.5 mph - N/A   Unknown
3:53 AM 42.1 °F - 32.0 °F 67% 30.17 in 10.0 mi Calm Calm - N/A   Unknown
5:53 AM 42.1 °F 38.4 °F 32.0 °F 67% 30.14 in 10.0 mi SSW 5.8 mph - N/A   Unknown
6:53 AM 43.0 °F 37.2 °F 30.9 °F 62% 30.12 in 10.0 mi South 10.4 mph - N/A   Unknown
7:53 AM 45.0 °F 43.5 °F 32.0 °F 60% 30.13 in 10.0 mi SSW 3.5 mph - N/A   Unknown
8:53 AM 48.0 °F - 34.0 °F 58% 30.11 in 10.0 mi SSW 5.8 mph - N/A   Unknown
9:53 AM 55.9 °F - 34.0 °F 44% 30.08 in 10.0 mi South 3.5 mph - N/A   Clear
10:53 AM 59.0 °F - 36.0 °F 42% 30.05 in 10.0 mi Calm Calm - N/A   Clear
11:53 AM 61.0 °F - 34.0 °F 36% 30.00 in 10.0 mi ESE 3.5 mph - N/A   Clear
12:53 PM 63.0 °F - 33.1 °F 33% 29.98 in 10.0 mi Calm Calm - N/A   Clear
1:53 PM 64.0 °F - 33.1 °F 31% 29.97 in 10.0 mi Calm Calm - N/A   Clear
2:53 PM 63.0 °F - 34.0 °F 34% 30.00 in 10.0 mi Calm Calm - N/A   Clear
3:53 PM 57.0 °F - 36.0 °F 45% 30.02 in 10.0 mi WSW 5.8 mph - N/A   Clear
4:53 PM 57.0 °F - 34.0 °F 42% 30.03 in 10.0 mi Calm Calm - N/A   Clear
5:53 PM 53.1 °F - 30.0 °F 41% 30.04 in 10.0 mi NNW 6.9 mph - N/A   Clear
6:53 PM 50.0 °F - 28.9 °F 44% 30.05 in 10.0 mi SW 4.6 mph - N/A   Clear
7:53 PM 55.0 °F - 28.0 °F 35% 30.05 in 10.0 mi Variable 6.9 mph - N/A   Clear
8:53 PM 48.0 °F - 28.9 °F 48% 30.10 in 10.0 mi ESE 4.6 mph - N/A   Partly Cloudy
9:53 PM 52.0 °F - 30.9 °F 45% 30.08 in 10.0 mi NNW 15.0 mph 24.2 mph N/A   Clear
10:53 PM 45.0 °F - 33.1 °F 63% 30.12 in 10.0 mi Calm Calm - N/A   Clear
11:53 PM 43.0 °F 40.3 °F 34.0 °F 71% 30.14 in 10.0 mi West 4.6 mph - N/A   Clear